Location: Allaines
(49.9632°N, 2.9458°E)
Time: 13:57:02
(UTC+00:00)

CZ-2C R/B - Pass Details

Date: 09 April 2020
Orbit: 785 x 870 km, 98.3° (Epoch: 03 June)

Event Time Altitude Azimuth Distance (km) Brightness Sun altitude
Rises 19:16:11 0° 22° (NNE) 3,290 5.8 -7.4°
Reaches altitude 10° 19:18:50 10° 34° (NE) 2,357 4.9 -7.8°
Maximum altitude 19:23:17 28° 93° (E) 1,441 3.4 -8.5°
Drops below altitude 10° 19:27:44 10° 152° (SSE) 2,360 4.6 -9.1°
Sets 19:30:23 0° 164° (SSE) 3,295 5.4 -9.5°
